• In Belgien
  • Länderverzeichnis
  • Für 7 Tage
  • Wassertemperatur
  • Satellitenkarten
  • Wetterkarte
  • Widgets
  • user-avatar
    Anmelden

    Stündliche Wetter Fier

    Heute, 22 November, Mittwoch

    Zeit Temperatur Niederschläge Wind Luftdruck Luftfeuchtigkeit
    00:00 +7°C° 0 mm 2 m/S 765 mmHg 51%
    01:00 +7°C° 0 mm 2 m/S 765 mmHg 51%
    02:00 +7°C° 0 mm 2 m/S 765 mmHg 51%
    03:00 +7°C° 0 mm 2 m/S 765 mmHg 51%
    04:00 +7°C° 0 mm 2 m/S 765 mmHg 51%
    05:00 +7°C° 0 mm 2 m/S 765 mmHg 53%
    06:00 +7°C° 0 mm 2 m/S 765 mmHg 54%
    07:00 +7°C° 0 mm 2 m/S 765 mmHg 55%
    08:00 +9°C° 0 mm 2 m/S 765 mmHg 53%
    09:00 +12°C° 0 mm 2 m/S 765 mmHg 51%
    10:00 +14°C° 0 mm 1 m/S 765 mmHg 48%
    11:00 +15°C° 0 mm 1 m/S 765 mmHg 49%
    12:00 +16°C° 0 mm 1 m/S 765 mmHg 50%
    13:00 +16°C° 0 mm 1 m/S 765 mmHg 51%
    14:00 +15°C° 0 mm 1 m/S 765 mmHg 56%
    15:00 +14°C° 0 mm 1 m/S 765 mmHg 62%
    16:00 +13°C° 0 mm 1 m/S 764 mmHg 67%
    17:00 +12°C° 0 mm 1 m/S 765 mmHg 69%
    18:00 +12°C° 0 mm 1 m/S 765 mmHg 71%
    19:00 +11°C° 0 mm 1 m/S 765 mmHg 72%
    20:00 +11°C° 0 mm 1 m/S 765 mmHg 72%
    21:00 +11°C° 0 mm 1 m/S 765 mmHg 71%
    22:00 +11°C° 0 mm 1 m/S 765 mmHg 71%
    23:00 +11°C° 0 mm 1 m/S 765 mmHg 70%

    Morgen, 23 November, Donnerstag

    Zeit Temperatur Niederschläge Wind Luftdruck Luftfeuchtigkeit
    00:00 +11°C° 0 mm 1 m/S 765 mmHg 69%
    01:00 +10°C° 0 mm 1 m/S 765 mmHg 69%
    02:00 +10°C° 0 mm 1 m/S 765 mmHg 68%
    03:00 +10°C° 0 mm 1 m/S 765 mmHg 68%
    04:00 +10°C° 0 mm 1 m/S 764 mmHg 68%
    05:00 +9°C° 0 mm 2 m/S 765 mmHg 67%
    06:00 +9°C° 0 mm 2 m/S 765 mmHg 66%
    07:00 +9°C° 0 mm 2 m/S 765 mmHg 65%
    08:00 +12°C° 0 mm 2 m/S 765 mmHg 59%
    09:00 +15°C° 0 mm 1 m/S 765 mmHg 53%
    10:00 +18°C° 0 mm 1 m/S 765 mmHg 47%
    11:00 +18°C° 0 mm 1 m/S 765 mmHg 46%
    12:00 +19°C° 0 mm 1 m/S 765 mmHg 46%
    13:00 +19°C° 0 mm 1 m/S 764 mmHg 45%
    14:00 +18°C° 0 mm 1 m/S 764 mmHg 51%
    15:00 +16°C° 0 mm 1 m/S 764 mmHg 56%
    16:00 +15°C° 0 mm 1 m/S 764 mmHg 62%
    17:00 +14°C° 0 mm 1 m/S 765 mmHg 64%
    18:00 +13°C° 0 mm 1 m/S 765 mmHg 66%
    19:00 +12°C° 0 mm 1 m/S 766 mmHg 68%
    20:00 +12°C° 0 mm 1 m/S 766 mmHg 67%
    21:00 +12°C° 0 mm 1 m/S 766 mmHg 66%
    22:00 +12°C° 0 mm 1 m/S 766 mmHg 66%
    23:00 +11°C° 0 mm 1 m/S 766 mmHg 65%

    übermorgen, 24 November, Freitag

    Zeit Temperatur Niederschläge Wind Luftdruck Luftfeuchtigkeit
    00:00 +11°C° 0 mm 1 m/S 766 mmHg 65%
    01:00 +11°C° 0 mm 1 m/S 766 mmHg 64%
    02:00 +11°C° 0 mm 1 m/S 766 mmHg 63%
    03:00 +11°C° 0 mm 1 m/S 766 mmHg 62%
    04:00 +11°C° 0 mm 1 m/S 766 mmHg 61%
    05:00 +11°C° 0 mm 1 m/S 766 mmHg 60%
    06:00 +10°C° 0 mm 1 m/S 766 mmHg 59%
    07:00 +10°C° 0 mm 1 m/S 766 mmHg 58%
    08:00 +13°C° 0 mm 1 m/S 766 mmHg 53%
    09:00 +15°C° 0 mm 1 m/S 766 mmHg 48%
    10:00 +18°C° 0 mm 1 m/S 766 mmHg 43%
    11:00 +18°C° 0 mm 1 m/S 766 mmHg 44%
    12:00 +19°C° 0 mm 1 m/S 766 mmHg 44%
    13:00 +18°C° 0 mm 2 m/S 765 mmHg 45%
    14:00 +17°C° 0 mm 2 m/S 765 mmHg 52%
    15:00 +16°C° 0 mm 2 m/S 765 mmHg 59%
    16:00 +14°C° 0 mm 2 m/S 765 mmHg 67%
    17:00 +14°C° 0 mm 2 m/S 765 mmHg 69%
    18:00 +13°C° 0 mm 2 m/S 766 mmHg 72%
    19:00 +12°C° 0 mm 2 m/S 766 mmHg 75%
    20:00 +12°C° 0 mm 1 m/S 766 mmHg 74%
    21:00 +12°C° 0 mm 1 m/S 766 mmHg 72%
    22:00 +12°C° 0 mm 1 m/S 766 mmHg 71%
    23:00 +11°C° 0 mm 1 m/S 766 mmHg 69%

    25 November, Samstag

    Zeit Temperatur Niederschläge Wind Luftdruck Luftfeuchtigkeit
    00:00 +11°C° 0 mm 1 m/S 766 mmHg 68%
    01:00 +11°C° 0 mm 1 m/S 766 mmHg 67%
    02:00 +11°C° 0 mm 1 m/S 766 mmHg 66%
    03:00 +11°C° 0 mm 1 m/S 766 mmHg 65%
    04:00 +10°C° 0 mm 1 m/S 766 mmHg 64%
    05:00 +10°C° 0 mm 1 m/S 766 mmHg 63%
    06:00 +10°C° 0 mm 1 m/S 766 mmHg 63%
    07:00 +10°C° 0 mm 1 m/S 766 mmHg 62%
    08:00 +12°C° 0 mm 1 m/S 766 mmHg 57%
    09:00 +14°C° 0 mm 1 m/S 766 mmHg 51%
    10:00 +16°C° 0 mm 1 m/S 766 mmHg 46%
    11:00 +18°C° 0 mm 1 m/S 766 mmHg 44%
    12:00 +18°C° 0 mm 1 m/S 765 mmHg 43%
    13:00 +19°C° 0 mm 1 m/S 765 mmHg 42%
    14:00 +18°C° 0 mm 1 m/S 765 mmHg 48%
    15:00 +16°C° 0 mm 1 m/S 765 mmHg 54%
    16:00 +14°C° 0 mm 1 m/S 765 mmHg 60%
    17:00 +14°C° 0 mm 1 m/S 765 mmHg 63%
    18:00 +13°C° 0 mm 2 m/S 765 mmHg 66%
    19:00 +12°C° 0 mm 2 m/S 766 mmHg 69%
    20:00 +12°C° 0 mm 2 m/S 766 mmHg 69%
    21:00 +10°C° 0 mm 2 m/S 766 mmHg 70%
    22:00 +10°C° 0 mm 2 m/S 766 mmHg 70%
    23:00 +10°C° 0 mm 3 m/S 766 mmHg 71%

    26 November, Sonntag

    Zeit Temperatur Niederschläge Wind Luftdruck Luftfeuchtigkeit
    00:00 +10°C° 0 mm 3 m/S 766 mmHg 71%
    01:00 +10°C° 0 mm 3 m/S 766 mmHg 71%
    02:00 +10°C° 0 mm 3 m/S 766 mmHg 71%
    03:00 +10°C° 0 mm 4 m/S 765 mmHg 71%
    04:00 +8°C° 0 mm 4 m/S 765 mmHg 71%
    05:00 +8°C° 0 mm 4 m/S 765 mmHg 71%
    06:00 +8°C° 0 mm 4 m/S 765 mmHg 71%
    07:00 +8°C° 0 mm 4 m/S 765 mmHg 71%
    08:00 +11°C° 0 mm 4 m/S 765 mmHg 66%
    09:00 +13°C° 0 mm 4 m/S 765 mmHg 61%
    10:00 +15°C° 0 mm 5 m/S 765 mmHg 56%
    11:00 +16°C° 0 mm 5 m/S 765 mmHg 55%
    12:00 +17°C° 0 mm 5 m/S 764 mmHg 55%
    13:00 +17°C° 0 mm 5 m/S 764 mmHg 54%
    14:00 +16°C° 0 mm 5 m/S 764 mmHg 60%
    15:00 +15°C° 0 mm 5 m/S 763 mmHg 66%
    16:00 +15°C° 0 mm 5 m/S 763 mmHg 71%
    17:00 +14°C° 0 mm 5 m/S 763 mmHg 74%
    18:00 +13°C° 0 mm 5 m/S 763 mmHg 77%
    19:00 +13°C° 0 mm 6 m/S 763 mmHg 79%
    20:00 +13°C° 0,1 mm 6 m/S 763 mmHg 80%
    21:00 +11°C° 0,1 mm 6 m/S 763 mmHg 81%
    22:00 +11°C° 0,1 mm 6 m/S 762 mmHg 82%
    23:00 +11°C° 0,6 mm 6 m/S 762 mmHg 83%

    27 November, Montag

    Zeit Temperatur Niederschläge Wind Luftdruck Luftfeuchtigkeit
    00:00 +13°C° 0,6 mm 6 m/S 762 mmHg 83%
    01:00 +13°C° 0,6 mm 6 m/S 761 mmHg 84%
    02:00 +13°C° 1,3 mm 5 m/S 761 mmHg 87%
    03:00 +13°C° 1,3 mm 5 m/S 761 mmHg 90%
    04:00 +13°C° 1,3 mm 4 m/S 761 mmHg 93%
    05:00 +13°C° 1,5 mm 4 m/S 761 mmHg 94%
    06:00 +13°C° 1,5 mm 4 m/S 761 mmHg 96%
    07:00 +13°C° 1,5 mm 4 m/S 761 mmHg 97%
    08:00 +13°C° 0,5 mm 4 m/S 761 mmHg 93%
    09:00 +13°C° 0,5 mm 4 m/S 761 mmHg 89%
    10:00 +14°C° 0,5 mm 4 m/S 762 mmHg 86%
    11:00 +14°C° 0,4 mm 4 m/S 762 mmHg 83%
    12:00 +14°C° 0,4 mm 5 m/S 761 mmHg 79%
    13:00 +15°C° 0,4 mm 5 m/S 761 mmHg 76%
    14:00 +14°C° 0,2 mm 5 m/S 762 mmHg 78%
    15:00 +13°C° 0,2 mm 5 m/S 762 mmHg 81%
    16:00 +13°C° 0,2 mm 6 m/S 762 mmHg 83%
    17:00 +12°C° 0,2 mm 5 m/S 763 mmHg 85%
    18:00 +10°C° 0,2 mm 5 m/S 763 mmHg 87%
    19:00 +11°C° 0,2 mm 4 m/S 764 mmHg 90%
    20:00 +10°C° 0 mm 4 m/S 764 mmHg 89%
    21:00 +10°C° 0 mm 3 m/S 764 mmHg 89%
    22:00 +10°C° 0 mm 3 m/S 765 mmHg 88%
    23:00 +10°C° 0 mm 3 m/S 765 mmHg 88%
    Mehr zeigen